x

8454000 - Providence, Ri (foxr1) Weather Station

11:36 - Fri 31st Jul 2015 All times are EDT. -4 hours from GMT.

  • Wind
    11mph, 20mph gusts
  • Sea Temp 75°f
  • Ar Temp 84°f
  • Sea Pressure 1009mb
  • 8454000 - Providence, Ri
  • 8454000 - Providence, Ri

More Historic Weather Station data

Upgrade to MSW Pro to gain access to the past 30 days of data for over 8000 Wavebouys and Weather Stations around the globe.

Join Pro

Comparision Forecast

View Surf forecast
   
Sex 07/31 11:36 11 20 mph 1009mb 75f 84f
11:30 14 20 mph 1009.1mb 75f 84f
11:24 9 17 mph 1009mb 75f 84f
11:18 9 16 mph 1009mb 75f 85f
11:12 11 17 mph 1009mb 75f 85f
11:06 6 17 mph 1009mb 75f 84f
11:00 9 14 mph 1009mb 75f 85f
10:54 9 14 mph 1009mb 75f 85f
10:48 11 15 mph 1009mb 75f 84f
10:42 9 15 mph 1009mb 75f 84f
10:36 7 9 mph 1009mb 75f 83f
10:30 6 10 mph 1009mb 75f 83f
10:24 2 10 mph 1009mb 74f 83f
10:18 7 14 mph 1009mb 74f 81f
10:12 5 13 mph 1009mb 74f 82f
10:06 7 10 mph 1008.9mb 74f 82f
10:00 9 13 mph 1008.9mb 74f 82f
9:54 8 11 mph 1008.9mb 74f 82f
9:48 7 11 mph 1009mb 74f 81f
9:42 7 11 mph 1008.9mb 74f 82f
9:36 8 13 mph 1009mb 74f 81f
9:30 7 11 mph 1008.9mb 74f 81f
9:24 7 13 mph 1009mb 74f 80f
9:18 7 10 mph 1009.1mb 74f 81f
9:12 8 10 mph 1009mb 74f 80f
9:06 8 13 mph 1009mb 74f 79f
9:00 10 14 mph 1009mb 74f 79f
8:54 10 14 mph 1009.1mb 74f 79f
8:48 8 13 mph 1009.1mb 74f 79f
8:42 6 11 mph 1009.1mb 74f 79f
8:36 8 11 mph 1009.1mb 74f 79f
8:30 9 13 mph 1009.1mb 74f 78f
8:24 9 13 mph 1009.1mb 74f 78f
8:18 10 13 mph 1009.2mb 74f 78f
8:12 8 13 mph 1009.2mb 74f 78f
8:06 9 13 mph 1009.3mb 74f 78f
8:00 8 13 mph 1009.2mb 74f 78f
7:54 8 13 mph 1009.2mb 74f 78f
7:48 10 13 mph 1009.2mb 74f 77f
7:42 8 14 mph 1009.2mb 74f 77f
7:36 7 10 mph 1009.1mb 74f 77f
7:30 8 11 mph 1009.2mb 73f 76f
7:24 9 14 mph 1009.1mb 73f 76f
7:18 9 14 mph 1009.1mb 73f 76f
7:12 6 11 mph 1009.1mb 73f 76f
7:06 7 11 mph 1009mb 73f 76f
7:00 7 11 mph 1009mb 73f 76f
6:54 6 8 mph 1008.9mb 73f 76f
6:48 6 10 mph 1008.8mb 73f 75f
6:42 6 7 mph 1008.8mb 73f 75f
6:36 5 8 mph 1008.7mb 73f 75f
6:30 3 6 mph 1008.7mb 73f 74f
6:24 5 6 mph 1008.6mb 73f 74f
6:18 5 7 mph 1008.6mb 73f 74f
6:12 5 7 mph 1008.5mb 73f 74f
6:06 5 7 mph 1008.5mb 74f 73f
6:00 3 6 mph 1008.4mb 74f 73f
5:54 3 6 mph 1008.4mb 74f 73f
5:48 3 6 mph 1008.4mb 74f 73f
5:42 3 5 mph 1008.3mb 74f 73f
5:36 2 6 mph 1008.3mb 74f 73f
5:30 3 7 mph 1008.3mb 75f 73f
5:24 5 6 mph 1008.3mb 75f 73f
5:18 5 7 mph 1008.2mb 75f 73f
5:12 3 6 mph 1008.2mb 75f 73f
5:06 3 6 mph 1008.2mb 75f 73f
5:00 2 3 mph 1008.1mb 75f 73f
4:54 2 5 mph 1008.1mb 75f 73f
4:48 2
mph
1008mb 75f 73f
4:42  -  2 mph 1008mb 75f 73f
4:36 1 2 mph 1007.9mb 75f 74f
4:30  -  3 mph 1007.9mb 75f 74f
4:24 2 5 mph 1007.9mb 75f 74f
4:18 2 3 mph 1007.9mb 75f 74f
4:12 2 5 mph 1007.9mb 75f 74f
4:06 3 5 mph 1007.8mb 75f 74f
4:00 2 5 mph 1007.8mb 75f 74f
3:54 2 3 mph 1007.8mb 75f 74f
3:48 1 3 mph 1007.8mb 75f 74f
3:42 1 5 mph 1007.8mb 75f 74f
3:36 2 6 mph 1007.8mb 75f 74f
3:30 3 6 mph 1007.8mb 75f 74f
3:24 5 6 mph 1007.9mb 75f 74f
3:18 3 6 mph 1007.9mb 75f 74f
3:12 3 6 mph 1007.9mb 75f 74f
3:06 3 7 mph 1007.8mb 75f 75f
3:00 5 6 mph 1007.8mb 75f 75f
2:54 5 6 mph 1007.9mb 75f 75f
2:48 3 6 mph 1007.9mb 75f 75f
2:42 3 6 mph 1008mb 75f 75f
2:36 3 6 mph 1008.1mb 75f 75f
2:30 3 6 mph 1008.1mb 75f 75f
2:24 3 7 mph 1008.1mb 76f 75f
2:18 6 7 mph - - -
2:12 3 6 mph 1008.2mb 76f 75f
2:06 5 6 mph 1008.2mb 76f 75f
2:00 2 7 mph 1008.3mb 76f 75f
1:54 6 7 mph 1008.3mb 76f 75f
1:48 6 8 mph 1008.4mb 76f 75f
1:42 7 10 mph 1008.4mb 76f 75f
1:36 3 8 mph 1008.5mb 76f 76f
1:30 6 8 mph 1008.5mb 76f 76f
1:24 6 8 mph 1008.5mb 76f 76f
1:18 3 6 mph 1008.5mb 76f 76f
1:12 5 6 mph 1008.5mb 76f 76f
1:06 3 6 mph 1008.5mb 76f 76f
1:00 5 6 mph 1008.6mb 76f 76f
12:54 5 8 mph 1008.5mb 76f 76f
12:48 6 7 mph 1008.5mb 76f 76f
12:42 5 7 mph 1008.5mb 76f 76f
12:36 5 8 mph 1008.5mb 76f 76f
12:30 5 8 mph 1008.5mb 76f 76f
12:24 3 7 mph 1008.4mb 76f 76f
12:18 5 8 mph 1008.4mb 76f 76f
12:12 6
mph
1008.4mb 76f 76f
12:06 5 8 mph 1008.5mb 76f 76f
12:00 3 8 mph 1008.5mb 76f 76f
Qui 07/30 11:54 6 8 mph 1008.6mb 76f 76f
11:48 5 6 mph 1008.6mb 76f 76f
11:42 5 7 mph 1008.6mb 76f 76f
11:36 6 8 mph 1008.6mb 76f 76f
11:30 6 8 mph 1008.7mb 76f 76f
11:24 5 7 mph 1008.8mb 76f 76f
11:18 6 8 mph 1008.8mb 76f 75f
11:12 6 8 mph 1008.7mb 76f 75f
11:06 6 9 mph 1008.7mb 76f 75f
11:00 6 9 mph 1008.8mb 76f 75f
10:54 7 10 mph 1008.7mb 76f 75f
10:48 8 11 mph 1008.8mb 76f 75f
10:42 8 11 mph 1008.9mb 76f 75f
10:36 6 11 mph 1008.9mb 76f 75f
10:30 8 14 mph 1008.9mb 76f 75f
10:24 8 14 mph 1008.9mb 76f 75f
10:18 9 13 mph 1008.9mb 76f 75f
10:12 10 14 mph 1008.9mb 76f 75f
10:06 9 17 mph 1008.9mb 76f 75f
10:00 10 14 mph 1009mb 76f 75f
9:54 11 14 mph 1009mb 76f 75f
9:48 8 13 mph 1009mb 76f 75f
9:42 8 11 mph 1008.9mb 76f 75f
9:36 9 13 mph 1009mb 76f 75f
9:30 7 11 mph 1009mb 76f 75f
9:24 9 13 mph 1009mb 76f 75f
9:18 9 14 mph 1008.9mb 76f 75f
9:12 8 14 mph 1008.9mb 76f 74f
9:06 10 13 mph 1008.7mb 76f 74f
9:00 8 10 mph 1008.7mb 76f 74f
8:54 5 13 mph 1008.6mb 76f 74f
8:48 8 11 mph 1008.6mb 76f 74f
8:42 8 13 mph 1008.5mb 75f 74f
8:36 6 8 mph 1008.6mb 75f 75f
8:30 7 8 mph 1008.5mb 74f 75f
8:24 6 11 mph 1008.4mb 74f 75f
8:18 7 11 mph 1008.6mb 74f 75f
8:12 7 14 mph 1008.7mb 74f 75f
8:06 6 11 mph 1008.8mb 74f 75f
8:00 9 13 mph 1008.8mb 74f 76f
7:54 7 16 mph 1008.9mb 74f 76f
7:48 9 14 mph 1009mb 74f 76f
7:42 7 13 mph 1008.9mb 74f 76f
7:36 13 17 mph 1009.1mb 74f 76f
7:30 8 15 mph 1009.2mb 74f 77f
7:24 10 17 mph 1009.2mb 74f 77f
7:18 7 14 mph 1009.1mb 74f 77f
7:12 9 15 mph 1009.2mb 74f 77f
7:06 7 15 mph 1009.1mb 74f 77f
7:00 9 16 mph 1009.1mb 74f 78f
6:54 10 15 mph 1009mb 74f 78f
6:48 11 15 mph 1008.9mb 74f 78f
6:42 10 16 mph 1008.9mb 74f 79f
6:36 11 16 mph 1008.8mb 74f 79f
6:30 10 14 mph 1008.7mb 74f 80f
6:24 8 13 mph 1008.7mb 74f 80f
6:18 7 17 mph 1008.6mb 74f 80f
6:12 16 23 mph 1008.5mb 74f 80f
6:06 13 21 mph 1008.5mb 74f 81f
6:00 7 18 mph 1008.5mb 74f 81f
5:54 10 18 mph 1008.4mb 74f 81f
5:48 11 22 mph 1008.5mb 74f 81f
5:42 16 20 mph 1008.4mb 74f 82f
5:36 13 16 mph 1008.3mb 74f 82f
5:30 11 17 mph 1008.2mb 74f 82f
5:24 13 16 mph 1008.2mb 74f 83f
5:18 13 24 mph 1008.3mb 74f 83f
5:12 14 22 mph 1008.3mb 74f 83f
5:06 15 20 mph 1008.5mb 74f 83f
5:00 14 20 mph 1008.4mb 74f 83f
4:54 13 22 mph 1008.3mb 74f 83f
4:48 14 28 mph 1008.2mb 74f 84f
4:42 14 24 mph 1008.3mb 74f 84f
4:36 14 24 mph 1008.2mb 74f 84f
4:30 13 22 mph 1008.2mb 74f 84f
4:24 11 20 mph 1008.3mb 74f 85f
4:18 13 25 mph 1008.2mb 74f 85f
4:12 18 25 mph 1008.3mb 74f 85f
4:06 11 22 mph 1008.4mb 74f 86f
4:00 15 21 mph 1008.5mb 74f 86f
3:54 13 21 mph 1008.5mb 74f 86f
3:48 13 24 mph - - -
3:42 15 25 mph 1008.5mb 74f 86f
3:36 16 24 mph 1008.5mb 74f 86f
3:30 20 25 mph 1008.6mb 74f 86f
3:24 11 22 mph 1008.7mb 74f 87f
3:18 15 22 mph 1008.7mb 74f 86f
3:12 16 30 mph 1008.8mb 74f 86f
3:06 14 22 mph 1008.9mb 74f 86f
3:00 13 25 mph 1008.9mb 74f 86f
2:54 17 24 mph 1009mb 74f 86f
2:48 17 28 mph 1009.1mb 74f 86f
2:42 16 24 mph 1009.2mb 74f 87f
2:36 20 28 mph 1009.3mb 74f 86f
2:30 18 25 mph 1009.3mb 74f 86f
2:24 15 20 mph 1009.4mb 74f 87f
2:18 13 18 mph 1009.5mb 74f 86f
2:12 13 24 mph 1009.5mb 74f 86f
2:06 16 24 mph 1009.6mb 74f 85f
2:00 16 24 mph 1009.7mb 74f 85f
1:54 14 25 mph 1009.6mb 74f 86f
1:48 14 18 mph 1009.7mb 74f 86f
1:42 15 23 mph 1009.8mb 74f 86f
1:36 16 22 mph 1009.8mb 74f 86f
1:30 13 22 mph 1009.9mb 74f 87f
1:24 15 22 mph 1010mb 74f 86f
1:18 11 17 mph 1010mb 74f 86f
1:12 11 17 mph 1010mb 74f 86f
1:06 14 23 mph 1010.1mb 74f 86f
1:00 20 26 mph 1010.2mb 74f 85f
12:54 14 18 mph 1010.2mb 74f 86f
12:48 11 23 mph 1010.2mb 74f 86f
12:42 17 22 mph 1010.3mb 74f 86f
12:36 17 23 mph 1010.3mb 74f 86f
12:30 10 18 mph 1010.3mb 74f 86f
12:24 17 22 mph 1010.3mb 74f 85f
12:18 15 20 mph 1010.4mb 74f 85f
12:12 16 22 mph 1010.4mb 74f 86f
12:06 10 22 mph 1010.5mb 74f 86f
12:00 14 21 mph 1010.5mb - -
11:54 14 23 mph 1010.6mb 74f 86f
11:48 14 21 mph 1010.6mb 74f 86f
11:42 14 21 mph 1010.6mb 74f 86f
11:30 15 21 mph 1010.7mb 74f 86f
11:24 13 18 mph 1010.7mb 74f 86f
11:18 14 17 mph 1010.7mb 74f 86f
11:12 14 21 mph 1010.7mb 74f 86f
11:06 13 20 mph 1010.7mb 74f 86f
11:00 15 21 mph 1010.8mb 74f 86f
10:54 8 16 mph 1010.7mb 74f 87f
10:48 9 14 mph 1010.8mb 74f 86f
10:42 11 18 mph 1010.8mb 74f 86f
10:36 13 18 mph 1010.8mb 74f 85f
10:30 9 16 mph 1010.9mb 74f 86f
10:24 14 17 mph 1010.9mb 74f 85f
10:18 8 16 mph 1010.9mb 74f 85f
10:12 11 20 mph 1010.9mb 74f 85f
10:06 13 18 mph 1010.9mb 74f 85f
10:00 10 15 mph - - -
9:54 8 14 mph 1010.9mb 74f 85f
9:48 10 15 mph 1011.1mb 74f 84f
9:42 6 10 mph 1011.1mb 74f 85f
9:36 7 14 mph 1011.1mb 74f 85f
9:30 8 14 mph 1011.1mb 74f 84f
9:24 8 16 mph 1011.2mb 74f 83f
9:12 8 13 mph 1011.4mb 73f 84f
9:06 8 11 mph 1011.5mb 73f 83f
9:00 8 15 mph 1011.5mb 73f 82f
8:54 9 14 mph 1011.6mb 73f 83f
8:48  -  mph - - 82f
8:42  -  mph - - 82f
8:36  -  mph - - 82f
8:30  -  mph - - 82f
8:24  -  mph - - 81f
8:18  -  mph - - 82f
8:12  -  mph - - 81f
8:06  -  mph - - 80f
8:00  -  mph - - 80f
7:54  -  mph - - 80f
7:48  -  mph - - 79f
7:30  -  mph - - 79f
7:24  -  mph - - 78f
7:18  -  mph - - 78f
7:12  -  mph - - 78f
7:06  -  mph - - 77f
7:00  -  mph - - 77f
6:54  -  mph - - 77f
6:48  -  mph - - 77f
6:42  -  mph - - 76f
6:36  -  mph - - 76f
6:30  -  mph - - 76f
6:24  -  mph - - 76f
6:18  -  mph - - 76f
6:12  -  mph - - 76f
6:06  -  mph - - 75f
6:00  -  mph - - 75f
5:54  -  mph - - 75f
5:48  -  mph 1011.5mb 72f 75f
5:42  -  mph 1011.5mb 72f 75f
5:36  -  mph 1011.6mb 72f 76f
5:30  -  mph 1011.5mb 72f 76f
5:24  -  mph 1011.5mb 72f 76f
5:18  -  mph 1011.5mb 72f 76f
5:12  -  mph - - 75f
5:06  -  mph - - 75f
5:00  -  mph - 73f 75f
4:54  -  mph - 73f 75f
4:48  -  mph - 73f 75f
4:42  -  mph - 73f 75f
4:36  -  mph - 74f 76f
4:30  -  mph - - 76f
4:24  -  mph - - 76f
4:18  -  mph - - 76f
4:12  -  mph - - 76f
4:06  -  mph - - 76f
4:00  -  mph 1011.5mb - 76f
3:54  -  mph 1011.6mb - 76f
3:48  -  mph - - 76f
3:42  -  mph - - 76f
3:36  -  mph - - 76f
3:30  -  mph - 74f 76f
3:24  -  mph - 74f 76f
3:18  -  mph - 74f 76f
3:12  -  mph - 74f 76f
3:06  -  mph - 74f 76f
3:00  -  mph - 75f 76f
2:54  -  mph - 75f 76f
2:48  -  mph - - 77f
2:42  -  mph - - 77f
2:36  -  mph - - 78f
2:30  -  mph 1011.7mb 75f 78f
2:24  -  mph 1011.7mb 75f 78f
2:18  -  mph 1011.8mb 75f 78f
2:12  -  mph 1011.8mb 75f 78f
2:06  -  mph 1011.8mb 75f 78f
2:00  -  mph 1011.8mb 75f 78f
1:54  -  mph 1011.9mb 75f 78f
1:48  -  mph 1011.9mb 75f 79f
1:18  -  mph - - 79f
1:12  -  mph - - 79f
1:06  -  mph - - 80f
1:00  -  mph - - 80f
12:54  -  mph - - 79f
12:48  -  mph - - 80f
12:42  -  mph - - 80f
12:36  -  mph - - 80f
12:30  -  mph - - 80f
12:24  -  mph - - 80f
12:18  -  mph - - 80f
12:12  -  mph - - 80f
12:06  -  mph - - 80f
12:00  -  mph - - 80f
Qua 07/29 11:54  -  mph - - 80f
11:48  -  mph - - 80f
11:42  -  mph - - 81f
11:36  -  mph - - 81f
11:30  -  mph - - 81f
11:24  -  mph - - 81f
11:18  -  mph - - 81f
11:12  -  mph - - 81f
11:06  -  mph - - 81f
11:00  -  mph - - 81f
10:54  -  mph - - 81f
10:48  -  mph - - 81f
10:42  -  mph - - 81f
10:36  -  mph - - 81f
10:30  -  mph - - 81f
10:24  -  mph - - 81f
10:18  -  mph - - 82f
10:12  -  mph - - 82f
10:06  -  mph - - 82f
10:00  -  mph - 74f 82f
9:54  -  mph - 74f 82f
9:48  -  mph - 74f 82f
9:42 7 9 mph 1012.1mb 74f 83f
9:36 6 8 mph 1012.1mb 74f 83f
9:30  -  mph - 74f 83f
9:24  -  mph - 74f 83f
9:18  -  mph - - 83f
9:12  -  mph - - 84f
9:06  -  mph - - 84f
9:00  -  mph - - 84f
8:54  -  mph - - 84f
8:48  -  mph - - 84f
8:42 7 10 mph 1012mb 73f 84f
8:36 6 8 mph 1012mb 73f 85f
8:30  -  mph 1012mb 73f 85f
8:24  -  mph 1011.9mb 73f 85f
8:18  -  mph 1011.9mb 73f 85f
8:12  -  mph 1012mb 73f 85f
8:06  -  mph 1012mb 73f 85f
8:00  -  mph - 73f 86f
7:54  -  mph - 73f 86f
7:48  -  mph - 73f 86f
7:42  -  mph - 73f 86f
7:36  -  mph - 73f 87f
7:30  -  mph - 73f 87f
7:24  -  mph - 73f 87f
7:18  -  mph - 72f 87f
7:12  -  mph - 72f 88f
7:06  -  mph - 72f 88f
7:00 10 14 mph 1011.6mb 72f 88f
6:54 11 16 mph 1011.5mb 72f 88f
6:48 11 15 mph 1011.5mb 72f 89f
6:42 8 15 mph 1011.4mb 72f 89f
6:36 8 14 mph 1011.4mb 72f 89f
6:30  -  mph - 72f 90f
6:24  -  mph - 72f 89f
6:18  -  mph - - 90f
6:12  -  mph - - 90f
6:06  -  mph - - 90f
6:00  -  mph - 72f 90f
5:54  -  mph - 72f 91f
5:48  -  mph - 72f 91f
5:42  -  mph - 72f 91f
5:36  -  mph - 72f 91f
5:30  -  mph - 72f 92f
5:24  -  mph - 72f 94f
5:18  -  mph - 72f 93f
5:12  -  mph - 72f 93f
5:06  -  mph - 72f 93f
5:00  -  mph 1011.5mb 73f 93f
4:54  -  mph 1011.5mb 73f 93f
4:48  -  mph 1011.5mb 73f 93f
4:42  -  mph 1011.5mb 73f 94f
4:36  -  mph 1011.5mb 73f 93f
4:30  -  mph 1011.5mb 73f 93f
4:24  -  mph 1011.6mb 73f 93f
4:18  -  mph 1011.7mb 73f 94f
4:12  -  mph - - 93f
4:06  -  mph - - 93f
4:00  -  mph - - 93f
3:54  -  mph - - 94f
3:48  -  mph - - 92f
3:42  -  mph - - 93f
3:36  -  mph - - 93f
3:30  -  mph - - 93f
3:24  -  mph - - 93f
3:18  -  mph - - 93f
3:12  -  mph - - 93f
3:06  -  mph - - 93f
3:00  -  mph - - 92f
2:54  -  mph - - 93f
2:48  -  mph - - 93f
2:42  -  mph - - 93f
2:36  -  mph - - 92f
2:30  -  mph - - 92f
2:24  -  mph - - 93f
2:18  -  mph - - 92f
2:12  -  mph - - 92f
2:06  -  mph - - 91f
2:00  -  mph - - 92f
1:54  -  mph - - 91f
1:48  -  mph - - 91f
1:42  -  mph - - 92f
1:36  -  mph - - 91f
1:30  -  mph - - 91f
1:24  -  mph - - 91f
1:18 11 15 mph 1012.8mb 74f 91f
1:12 10 14 mph 1012.8mb 74f 91f
1:06 10 15 mph 1012.9mb 74f 90f
1:00 10 16 mph 1012.9mb 74f 91f
12:54 9 15 mph 1012.8mb 74f 90f
12:48 8 14 mph 1012.9mb 74f 91f
11:54 13 14 mph 1013.3mb 74f 84f
11:48 10 14 mph 1013.4mb 74f 85f
11:42 13 15 mph 1013.4mb 74f 83f
11:36 13 16 mph 1013.4mb 74f 83f
11:30 8 14 mph 1013.5mb 74f 84f
11:24 10 13 mph 1013.5mb 74f 83f
11:18 7 11 mph 1013.5mb 74f 83f
11:12 6 9 mph 1013.6mb 74f 83f
11:06 8 9 mph 1013.6mb 74f 82f
11:00 9
mph
1013.7mb 74f 82f
10:54 9
mph
1013.7mb 74f 82f
10:48 8
mph
1013.7mb 74f 82f
10:42 7 8 mph 1013.8mb 74f 82f
10:36 6
mph
1013.9mb 74f 81f
10:30 6 7 mph 1013.9mb 74f 81f
10:24 6
mph
1013.9mb 74f 80f
10:18 6
mph
1014mb 74f 80f
10:12 6
mph
1014mb 73f 80f
10:06 6 7 mph 1013.9mb 73f 80f
10:00 6 7 mph 1013.9mb 73f 80f
9:54 7
mph
1013.8mb 74f 80f
9:48 6
mph
1013.8mb 74f 80f
9:42 6
mph
1013.8mb 74f 80f
9:36 3 5 mph 1013.8mb 74f 79f
9:30 5
mph
1013.8mb 73f 78f
9:24 5 6 mph 1013.8mb 73f 78f
9:18 5 6 mph 1013.7mb 73f 77f
9:12 5 6 mph 1013.8mb 73f 77f
9:06 5
mph
1013.8mb 73f 77f
9:00 5
mph
1013.9mb 73f 77f
8:54 5
mph
1013.8mb 73f 77f
8:48 3 5 mph 1013.8mb 73f 76f
8:42 3 5 mph 1013.7mb 73f 76f
8:36 3 5 mph 1013.7mb 73f 75f
8:30 5
mph
1013.7mb 73f 75f
8:24 5 6 mph 1013.8mb 73f 75f
8:18 5 6 mph 1013.8mb 73f 74f
8:12 5
mph
1013.8mb 73f 74f
8:06 3
mph
1013.8mb 73f 74f
8:00 3
mph
1013.9mb 73f 74f
7:54 3
mph
1013.9mb 73f 74f
7:48 3
mph
1013.9mb 72f 74f
7:42 2 3 mph 1013.9mb 72f 74f
7:36 2 3 mph 1013.9mb 72f 74f
7:30 2 3 mph 1013.9mb 72f 73f
7:24 2 3 mph 1013.9mb 72f 73f
7:18 3
mph
1013.9mb 72f 73f
7:12 3
mph
1013.9mb 72f 73f
7:06 3
mph
1013.9mb 72f 73f
7:00 2 3 mph 1013.8mb 72f 73f
6:54 3
mph
1013.8mb 72f 73f
6:48 1 2 mph 1013.8mb 72f 73f
6:42 1 2 mph 1013.8mb 72f 73f
6:36 1 2 mph 1013.8mb 72f 73f
6:30  -  2 mph 1013.7mb 72f 72f
6:24 1 3 mph 1013.7mb 72f 72f
6:18 1 2 mph 1013.7mb 72f 73f
6:12  -  2 mph 1013.6mb 72f 72f
6:06 2 3 mph 1013.6mb 72f 71f
6:00 3
mph
1013.6mb 72f 71f
5:54 2
mph
1013.6mb 72f 71f
5:48 2
mph
1013.6mb 72f 71f
5:42 1 2 mph 1013.5mb 72f 71f
5:36  -  mph 1013.4mb 72f 71f
5:30  -  1 mph 1013.4mb 72f 71f
5:24 1 2 mph 1013.2mb 72f 71f
5:18  -  1 mph 1013.3mb 72f 71f
5:12  -  mph 1013.3mb 72f 71f
5:06  -  1 mph 1013.3mb 72f 71f
5:00  -  1 mph 1013.3mb 72f 71f
4:54  -  1 mph 1013.2mb 72f 71f
4:48  -  1 mph 1013.2mb 72f 71f
4:42  -  2 mph 1013.1mb 72f 71f
4:36 2
mph
1013.1mb 72f 71f
4:30 2
mph
1013mb 72f 71f
4:24 1 2 mph 1013mb 73f 71f
4:18 2 3 mph 1012.9mb 73f 71f
4:12 2 3 mph 1013mb 73f 71f
4:06 2 3 mph 1013mb 73f 71f
4:00 2 5 mph 1013mb 73f 72f
3:54 3 5 mph 1013mb 73f 72f
3:48 3 5 mph 1013mb 74f 72f
3:42 3 5 mph 1013mb 74f 72f
3:36 2 3 mph 1013mb 74f 73f
3:30 1 3 mph 1012.9mb 73f 72f
3:24 2 3 mph 1013mb 74f 72f
3:18  -  3 mph 1013mb 74f 72f
3:12 3
mph
1012.9mb 74f 72f
3:06 1 2 mph 1012.9mb 74f 72f
3:00 1 2 mph 1013mb 74f 72f
2:54 2
mph
1013mb 74f 72f
2:48 1 2 mph - - -
2:42  -  2 mph - 74f 72f
2:36  -  2 mph - 74f 72f
2:30 2
mph
1013.1mb 74f 72f
2:24 2
mph
1013.1mb 74f 72f
2:18  -  2 mph 1013.1mb 74f 72f
2:12 1 2 mph 1013.1mb 74f 72f
2:06  -  2 mph 1013.1mb 74f 73f
2:00 2 3 mph 1013.1mb 74f 73f
1:54 3
mph
1013.2mb 74f 73f
1:48 2
mph
1013.2mb 74f 73f
1:42 1 2 mph 1013.3mb 74f 73f
1:36  -  1 mph 1013.3mb 74f 72f
1:30  -  2 mph 1013.3mb 74f 73f
1:24 2
mph
1013.3mb 74f 73f
1:18 2 3 mph 1013.4mb 74f 73f
1:12 2 3 mph 1013.3mb 74f 73f
1:06 2 3 mph 1013.3mb 74f 73f
1:00 2 3 mph 1013.4mb 74f 73f
12:54 2 5 mph 1013.4mb 74f 73f
12:48 3 5 mph 1013.5mb 74f 73f
12:42 2 3 mph 1013.5mb 74f 74f
12:36 2 3 mph 1013.6mb 74f 73f
12:30  -  2 mph 1013.5mb 74f 73f
12:24  -  2 mph 1013.6mb 74f 73f
12:18 2 3 mph 1013.6mb 74f 73f
12:12 2
mph
1013.8mb 74f 73f
12:06 1 2 mph 1013.9mb 74f 74f
12:00 1 2 mph 1013.9mb 74f 74f
Ter 07/28 11:54 2 3 mph 1013.9mb 74f 73f
11:48 2 3 mph 1013.9mb 74f -
11:42 2 3 mph 1013.9mb 74f 73f
11:36 1 3 mph 1013.9mb 75f 74f
11:30 3
mph
1013.8mb 74f 74f
11:24 2 3 mph 1013.8mb 74f 74f
11:18 2 3 mph 1013.7mb 74f 74f
11:12 1 2 mph 1013.8mb 74f 74f
11:06 1 2 mph 1013.8mb 74f 74f
11:00 1 2 mph 1013.8mb 74f 74f
10:54 1
mph
1013.9mb 74f 74f
10:48 1
mph
1013.9mb 74f 73f
10:42 1 2 mph 1013.9mb 74f 74f
10:36 2 3 mph 1013.8mb 74f 74f
10:30 3 5 mph 1013.8mb 74f 74f
10:24 3 5 mph 1013.7mb 74f 74f
10:18 3
mph
1013.7mb 74f 74f
10:12 3 5 mph 1013.9mb 74f 74f
10:06 3 5 mph 1013.9mb 74f 74f
10:00 3 5 mph 1013.9mb 74f 74f
9:54 3 5 mph 1014mb 74f 74f
9:48 2 5 mph 1013.9mb 74f 74f
9:42 3 5 mph 1013.8mb 74f 74f
9:36 5 6 mph 1013.9mb 74f 74f
9:30 5
mph
1013.8mb 74f 75f
9:24 2 3 mph 1013.8mb 74f 75f
9:18 2 3 mph 1013.8mb 74f 75f
9:12 2 5 mph 1013.8mb 74f 75f
9:06 5
mph
1013.8mb 74f 75f
9:00 2
mph
1013.8mb 74f 75f
8:54 2 3 mph 1013.8mb 74f 75f
8:48 2 3 mph 1013.8mb 74f 76f
8:42 1 3 mph 1013.7mb 74f 76f
8:36 3
mph
1013.7mb 74f 76f
8:30 2
mph
1013.6mb 74f 76f
8:24 3 6 mph 1013.5mb 74f 76f
8:18 3 5 mph 1013.4mb 74f 76f
8:12 2 6 mph 1013.3mb 74f 76f
8:06 7
mph
1013.3mb 74f 76f
8:00 3 5 mph 1013.3mb 73f 77f
7:54 2 5 mph 1013.2mb 73f 76f
7:48 5
mph
1013.2mb 73f 76f
7:42 5 6 mph 1013.2mb 73f 76f
7:36 6 7 mph 1013.3mb 73f 76f
7:30 6 7 mph 1013.2mb 73f 76f
7:24 6
mph
1013.2mb 73f 76f
7:18 5
mph
1013.2mb 73f 77f
7:12 5 6 mph 1013.2mb 73f 77f
7:06 6 8 mph 1013.2mb 73f 77f
7:00 6 9 mph 1013.3mb 73f 77f
6:54 6 8 mph 1013.4mb 73f 76f
6:48 7 11 mph 1013.3mb 73f 76f
6:42 8 11 mph 1013.3mb 73f 77f
6:36 9 10 mph 1013.3mb 73f 76f
6:30 6 10 mph 1013.3mb 73f 76f
6:24 11 13 mph 1013.3mb 73f 76f
6:18 6 7 mph 1013.1mb 73f 77f
6:12 6 9 mph 1012.9mb 73f 77f
6:06 8 9 mph 1012.9mb 73f 77f
6:00 5 6 mph 1012.9mb 72f 78f
5:54 5 7 mph 1012.8mb 72f 78f
5:48 5 7 mph 1012.9mb 72f 77f
5:42 3 8 mph 1013.2mb 72f 76f
5:36 8 14 mph 1013.3mb 72f 76f
5:30 11 13 mph 1013.2mb 72f 76f
5:24 11 17 mph 1013.2mb 72f 76f
5:18 8 9 mph 1013.1mb 72f 77f
5:12 6 7 mph 1013.1mb 72f 76f
5:06 5 8 mph 1013mb 72f 76f
5:00 7 10 mph 1012.9mb 72f 76f
4:54 8 11 mph 1012.9mb 72f 77f
4:48 7 10 mph 1012.8mb 72f 77f
4:42 5 11 mph 1012.6mb 72f 78f
4:36 6 10 mph 1012.5mb 72f 77f